User: anonymous   Login
Location: Caltech
(34.1382°N, 118.1253°W)
Time: 13:28:58
(UTC-07:00)
Language:

AO-Echo - Orbit

View from above orbital plane
View from above orbital plane
View from above satellite
View from above satellite

Ground track
Ground track

The orbit data is extracted from the following two-line orbital elements,

1 28375U 04025K   14297.39034682  .00000544  00000-0  17422-3 0  9761
2 28375 098.2651 239.9851 0082045 322.5345 037.0143 14.41468462542513
Epoch (UTC): 24 October 2014 09:22:05
Eccentricity: 0.0082045
inclination: 98.2651°
perigee height: 695 km
apogee height: 812 km
right ascension of ascending node: 239.9851°
argument of perigee: 322.5345°
revolutions per day: 14.41468462
mean anomaly at epoch: 37.0143°
orbit number at epoch: 54251

The dashed part of the orbit path shows where the satellite is in the earth's shadow,  

DLR